Location: Worth Mountain WMA
(34.9569°N, 81.4819°W)
Time: 22:56:53
(UTC-05:00)

Cosmos 1140 Rocket - Pass Details

Date: 18 August 2017
Orbit: 745 x 767 km, 74.1° (Epoch: 22 November)

Event Time Altitude Azimuth Distance (km) Brightness Sun altitude
Rises 21:39:25 0° 341° (NNW) 3,229 7.5 -17.6°
Reaches altitude 10° 21:41:47 10° 340° (NNW) 2,302 6.7 -18.0°
Maximum altitude 21:47:01 80° 255° (WSW) 781 3.5 -18.9°
Enters shadow 21:50:11 24° 171° (S) 1,526 4.7 -19.5°
